Wind_Speed
41 39 38 38 38 38 39 38 37 34 33 35 36 35 32 33 37 40 45 50 53 57 60 62 63 63 65 67 67 67 66 64 62 61 59 58 56 55 54 53 51 50 48 46
40 39 39 38 37 37 36 36 35 33 31 33 33 32 30 31 34 36 42 47 50 54 59 61 63 63 64 66 67 67 67 65 63 61 59 59 56 54 54 53 52 50 49 48
39 39 39 37 35 35 34 33 34 33 30 29 31 30 30 29 30 32 38 43 47 52 57 59 62 64 64 66 67 67 66 65 63 61 59 59 58 55 54 52 52 51 49 48
39 38 38 36 35 34 32 31 31 29 28 27 26 28 26 26 27 30 35 40 44 50 55 57 60 63 64 65 66 66 66 66 64 62 60 59 57 55 52 52 52 51 50 49
41 38 37 35 33 33 31 29 27 25 24 23 21 24 22 23 25 27 32 38 42 47 53 56 59 62 64 64 65 66 66 66 65 63 60 58 56 54 53 52 52 51 50 49
39 37 36 34 32 31 30 27 24 21 21 19 18 21 21 21 24 26 30 36 40 44 51 54 58 61 63 65 65 65 66 65 65 63 62 59 56 56 54 52 52 51 50 49
38 36 35 34 31 29 27 25 22 19 18 18 17 18 18 20 22 24 27 33 38 43 49 53 56 60 62 63 65 66 66 65 65 64 63 60 56 55 54 51 51 51 50 48
38 34 33 32 30 28 25 22 20 20 19 18 17 17 16 17 20 23 25 30 36 43 46 51 55 59 61 63 65 65 66 65 64 64 63 61 59 56 54 52 50 50 49 48
37 34 32 31 29 26 23 21 20 20 20 19 17 16 15 14 17 21 24 29 35 41 44 49 54 58 60 62 64 66 65 65 64 62 63 61 59 57 55 54 51 50 49 49
36 34 31 30 27 25 23 21 20 20 21 20 18 18 17 15 17 21 24 28 34 39 43 47 52 57 59 61 62 63 65 65 64 61 61 61 59 57 55 53 51 49 48 48
36 34 31 29 26 24 22 21 20 21 21 22 22 20 18 17 17 20 24 28 33 38 42 45 50 55 58 59 61 62 63 64 64 61 60 61 59 57 56 54 52 49 48 48
36 34 31 28 26 24 22 21 21 21 22 22 23 20 19 19 19 20 23 27 31 36 41 44 47 52 57 59 59 60 63 63 62 61 60 59 59 57 56 54 52 50 48 47
37 34 32 29 27 25 23 21 22 23 22 22 22 21 20 19 19 21 22 26 30 33 39 42 45 49 55 58 59 60 60 61 60 60 59 59 59 57 55 54 53 51 49 48
37 35 32 30 28 27 24 23 23 24 23 23 22 21 19 19 19 21 23 26 29 31 36 41 44 47 52 57 59 59 59 60 61 59 59 58 58 57 55 53 53 52 51 50
37 35 33 30 28 27 25 24 24 24 24 24 22 21 18 19 20 21 24 26 29 30 34 39 42 45 49 54 57 58 58 59 59 59 58 57 57 57 56 55 53 53 53 51
37 35 33 31 29 28 26 24 25 25 25 25 24 21 20 20 20 21 24 26 29 31 33 37 42 44 47 50 54 56 57 58 57 58 58 55 55 56 57 56 54 53 53 52
36 35 34 31 29 29 27 25 25 26 24 25 25 23 22 21 21 21 23 27 29 31 33 37 41 44 47 49 51 54 54 56 57 58 57 55 54 55 55 55 54 53 52 52
35 34 34 32 30 28 27 25 26 26 25 25 25 24 23 23 23 23 23 26 28 31 34 37 39 42 45 48 50 52 54 54 55 57 57 56 55 55 54 54 54 54 52 51
35 34 33 32 31 29 27 26 26 26 25 25 25 25 24 25 25 24 24 26 27 30 33 36 39 41 43 46 49 51 53 54 54 55 57 56 55 55 54 54 53 53 51 50
35 34 33 33 32 30 27 26 26 26 26 25 25 26 26 26 26 26 26 27 28 30 32 35 38 42 43 45 48 50 51 53 53 53 55 55 55 55 55 54 53 52 51 49
34 33 32 33 33 30 28 27 26 26 25 24 26 26 27 27 27 27 28 28 29 30 32 34 36 40 42 44 47 47 49 52 53 53 54 54 54 55 55 54 54 52 51 49
34 33 32 32 32 30 28 27 26 26 26 25 25 26 27 28 28 28 28 28 29 31 33 35 36 38 40 43 45 46 47 50 51 52 53 53 53 54 54 54 54 53 52 50
33 33 33 32 30 29 28 27 27 26 25 25 25 26 26 27 28 28 28 29 29 31 33 36 37 38 39 41 43 45 47 48 50 51 52 53 53 53 53 53 52 52 51 50
33 33 32 31 28 28 28 27 27 27 25 24 25 25 25 26 26 27 28 29 29 30 32 35 38 39 39 41 43 45 45 47 48 50 51 52 53 52 52 51 51 50 50 49
33 32 31 30 28 28 27 27 27 26 25 24 24 25 25 25 25 26 27 28 28 29 32 35 37 39 40 40 43 45 45 46 47 49 50 51 51 52 51 51 50 49 48 46
30 30 30 28 28 27 26 26 27 26 25 25 25 25 25 25 25 26 26 27 28 28 31 34 36 38 39 40 41 44 45 45 47 48 49 50 51 51 51 51 50 49 48 47
Wind_Direction
320 319 316 311 307 303 299 295 293 288 281 276 270 264 259 250 243 239 236 231 226 220 215 213 212 212 212 212 212 212 213 214 216 217 218 219 220 222 223 224 225 226 227 229
322 321 318 315 311 307 302 297 294 290 282 277 271 264 257 252 246 241 237 231 225 219 215 212 210 210 211 211 211 211 212 214 215 217 218 219 221 222 223 224 225 226 228 229
324 323 322 320 315 310 306 301 297 293 286 279 272 264 258 254 249 240 235 229 225 221 216 213 210 209 210 211 211 211 212 213 214 216 218 220 221 222 222 224 226 227 228 229
324 322 321 321 319 314 310 305 300 295 287 282 276 273 261 254 249 241 233 227 225 221 216 213 210 210 209 210 211 211 211 212 214 216 217 220 221 222 223 225 226 227 228 229
327 323 321 321 320 316 313 310 304 296 289 283 278 276 269 256 248 240 232 228 225 221 216 212 209 209 209 209 210 210 211 213 214 215 216 219 221 221 223 224 225 226 228 229
328 324 322 321 320 318 316 312 306 296 289 285 281 279 275 260 250 243 234 228 223 219 216 212 209 209 209 209 209 209 210 212 213 214 216 218 220 221 223 224 226 227 228 229
328 325 322 321 320 318 317 315 310 304 296 289 288 284 279 265 251 244 235 227 221 216 214 213 210 209 210 209 210 210 211 212 213 214 215 217 219 220 222 224 226 227 228 229
328 326 323 322 320 319 316 313 309 304 299 291 288 286 281 270 252 243 236 227 220 216 213 213 211 210 210 210 210 211 211 212 213 214 215 217 219 221 223 224 226 227 228 229
326 326 324 321 318 316 313 309 304 299 297 293 287 286 278 268 251 241 234 227 221 217 215 212 210 209 210 210 211 212 213 213 213 214 216 216 218 221 223 224 226 227 228 229
324 323 324 320 315 311 308 303 299 297 296 295 287 282 274 259 247 238 232 228 222 217 216 213 210 209 210 211 211 212 213 214 214 214 215 217 218 220 221 223 226 227 228 229
323 321 322 319 315 308 303 298 292 290 290 291 289 282 271 258 247 239 232 226 223 218 215 214 211 210 211 212 212 212 212 214 214 215 215 216 217 219 221 223 225 227 228 228
323 319 319 318 313 307 299 294 289 286 286 286 285 283 273 262 249 239 232 225 223 219 216 214 213 211 211 211 212 212 212 214 215 216 217 217 217 218 220 222 223 226 227 228
321 319 316 315 311 305 298 291 288 285 284 283 282 280 273 263 250 243 236 226 221 220 217 215 214 212 213 213 212 213 213 213 215 216 216 217 218 219 220 221 223 226 227 228
319 317 315 311 307 302 296 290 286 283 282 281 280 276 267 262 251 241 237 229 223 221 218 216 215 212 213 213 213 214 214 214 215 217 217 218 220 220 221 221 223 225 227 228
316 315 314 310 304 298 294 288 284 282 279 277 276 272 267 261 253 241 235 230 225 222 219 217 216 214 213 213 215 215 215 216 216 218 218 218 220 221 222 223 224 225 227 228
315 313 312 310 303 297 291 287 283 281 278 275 272 268 265 260 255 245 237 233 228 222 219 217 217 217 215 213 215 215 216 216 216 217 217 217 218 220 222 224 225 226 227 229
313 313 311 309 304 298 292 287 283 281 278 273 269 265 260 257 253 247 241 235 232 226 222 218 217 218 216 214 214 215 216 216 216 217 218 218 219 220 222 224 226 227 229 231
312 311 310 309 304 299 298 288 282 280 276 271 268 263 258 255 251 247 243 237 233 229 225 221 218 217 218 217 216 215 215 216 217 218 219 220 220 221 222 224 226 227 229 232
309 308 307 306 303 301 298 292 285 280 275 270 266 262 258 254 252 248 242 238 235 230 228 224 221 218 217 218 217 216 216 217 217 218 219 220 221 221 223 224 226 228 230 232
306 305 303 303 301 301 302 295 288 281 277 270 265 261 258 254 253 249 243 238 235 233 229 225 223 220 219 218 217 217 218 218 218 219 219 220 221 222 223 225 227 228 230 233
303 302 300 300 299 300 300 295 290 283 279 272 265 261 258 255 253 248 245 240 236 234 231 227 224 221 220 219 218 218 219 219 219 219 219 219 220 222 223 225 226 228 231 233
301 300 298 297 297 299 296 292 289 284 278 273 267 263 259 256 252 249 246 242 238 236 232 228 226 223 220 219 218 219 219 219 219 220 220 219 220 221 223 225 226 228 231 233
298 297 295 296 296 294 293 289 286 284 279 273 269 264 261 257 253 251 249 245 241 237 233 229 227 225 223 220 218 218 218 218 219 221 221 220 220 221 223 225 226 228 230 232
296 294 293 293 293 291 289 287 286 284 281 275 270 266 264 260 255 252 250 247 243 238 234 230 227 226 224 222 219 218 218 218 219 220 220 220 220 221 223 225 226 228 229 232
295 292 291 290 291 290 289 287 285 283 280 276 271 267 265 261 257 254 250 246 242 238 234 230 228 226 225 223 220 219 219 219 220 220 221 221 222 222 223 224 226 227 229 230
292 290 289 290 289 289 289 285 284 282 279 276 272 269 266 262 259 253 249 245 242 240 235 230 227 226 226 223 221 220 220 220 220 220 221 221 222 222 223 225 225 226 228 229
Height
5602 5598 5591 5585 5578 5573 5567 5563 5560 5560 5557 5553 5551 5551 5553 5555 5556 5559 5563 5569 5577 5586 5597 5607 5619 5631 5642 5654 5665 5676 5687 5697 5706 5715 5723 5731 5738 5745 5752 5758 5764 5770 5775 5780
5596 5590 5583 5576 5570 5565 5559 5555 5552 5550 5548 5544 5543 5543 5545 5546 5548 5550 5554 5559 5567 5575 5585 5595 5607 5619 5631 5643 5654 5665 5677 5687 5697 5706 5715 5723 5729 5736 5743 5749 5755 5761 5767 5772
5588 5582 5574 5569 5563 5558 5553 5548 5544 5541 5539 5537 5535 5536 5538 5539 5540 5542 5545 5550 5557 5565 5575 5585 5597 5609 5620 5632 5643 5655 5666 5677 5687 5697 5705 5712 5720 5726 5733 5741 5747 5753 5759 5764
5582 5575 5568 5562 5556 5550 5547 5542 5537 5534 5531 5530 5530 5527 5532 5532 5533 5535 5538 5543 5548 5556 5565 5575 5586 5598 5610 5622 5633 5645 5656 5666 5677 5686 5695 5703 5711 5719 5726 5733 5738 5744 5750 5756
5575 5568 5562 5556 5551 5544 5540 5536 5532 5529 5526 5525 5525 5522 5526 5526 5527 5529 5532 5536 5541 5548 5557 5566 5577 5589 5600 5612 5623 5635 5645 5656 5666 5676 5686 5694 5703 5711 5717 5723 5729 5735 5741 5747
5569 5562 5556 5551 5545 5539 5535 5531 5528 5524 5522 5522 5521 5519 5521 5521 5522 5524 5526 5529 5534 5541 5549 5558 5568 5579 5590 5602 5613 5624 5635 5645 5656 5666 5676 5685 5693 5701 5708 5714 5721 5727 5733 5739
5564 5557 5551 5545 5541 5536 5530 5526 5523 5520 5518 5518 5517 5516 5517 5516 5516 5517 5520 5523 5528 5534 5542 5550 5560 5570 5581 5592 5604 5615 5626 5636 5646 5656 5666 5675 5683 5691 5698 5705 5712 5718 5725 5731
5558 5553 5546 5540 5535 5531 5527 5523 5521 5518 5516 5514 5513 5512 5513 5512 5511 5513 5515 5517 5522 5528 5535 5544 5553 5563 5573 5583 5595 5605 5616 5626 5637 5647 5656 5666 5674 5682 5690 5697 5703 5710 5716 5722
5551 5548 5541 5535 5530 5527 5523 5520 5517 5514 5511 5510 5509 5509 5508 5507 5507 5508 5510 5513 5517 5523 5529 5537 5546 5556 5565 5575 5585 5596 5606 5617 5627 5637 5647 5656 5665 5673 5681 5688 5695 5701 5707 5713
5545 5541 5537 5531 5526 5522 5519 5516 5514 5511 5507 5505 5505 5504 5503 5502 5502 5504 5505 5508 5512 5518 5524 5531 5539 5548 5557 5567 5577 5586 5597 5608 5618 5628 5638 5647 5655 5663 5672 5679 5686 5692 5698 5704
5540 5535 5531 5526 5522 5518 5515 5512 5509 5506 5504 5502 5499 5501 5498 5497 5498 5499 5500 5503 5507 5512 5518 5525 5533 5541 5549 5559 5569 5578 5588 5598 5608 5619 5628 5637 5646 5654 5663 5670 5678 5684 5690 5695
5534 5529 5525 5522 5517 5512 5509 5507 5504 5503 5500 5497 5494 5497 5494 5493 5493 5494 5495 5498 5501 5506 5512 5518 5525 5533 5542 5551 5560 5570 5580 5590 5600 5610 5619 5628 5637 5645 5654 5662 5669 5675 5681 5687
5528 5523 5519 5515 5513 5508 5505 5502 5499 5497 5495 5492 5490 5492 5489 5488 5487 5488 5490 5492 5496 5500 5506 5512 5518 5526 5534 5543 5552 5562 5571 5582 5592 5601 5610 5619 5628 5636 5645 5653 5660 5666 5673 5678
5521 5517 5514 5511 5505 5501 5498 5496 5493 5491 5489 5487 5486 5484 5484 5482 5482 5483 5484 5486 5490 5494 5499 5505 5512 5519 5527 5536 5545 5553 5563 5573 5583 5592 5601 5610 5619 5628 5636 5643 5651 5657 5664 5670
5514 5511 5506 5503 5498 5494 5492 5490 5487 5484 5483 5481 5480 5479 5479 5477 5477 5478 5479 5481 5484 5488 5493 5499 5505 5512 5519 5528 5537 5545 5555 5564 5574 5583 5592 5602 5610 5618 5626 5634 5641 5648 5655 5661
5507 5503 5499 5496 5491 5487 5485 5484 5481 5478 5476 5475 5473 5474 5474 5472 5472 5472 5473 5475 5478 5482 5487 5492 5498 5505 5512 5520 5529 5537 5546 5556 5565 5574 5584 5592 5600 5609 5617 5625 5632 5639 5645 5652
5501 5496 5491 5488 5484 5480 5478 5477 5474 5472 5470 5468 5467 5468 5467 5466 5466 5467 5468 5470 5472 5476 5480 5486 5492 5498 5505 5513 5521 5530 5538 5547 5556 5565 5574 5582 5591 5600 5608 5616 5623 5630 5636 5643
5494 5488 5483 5480 5477 5472 5474 5469 5467 5464 5463 5461 5460 5460 5460 5460 5460 5460 5462 5464 5466 5470 5474 5479 5485 5491 5498 5505 5513 5522 5530 5539 5547 5556 5565 5574 5582 5590 5599 5606 5614 5621 5628 5634
5486 5481 5475 5472 5467 5465 5465 5461 5458 5456 5456 5454 5453 5453 5453 5453 5453 5454 5455 5457 5460 5463 5467 5472 5478 5484 5490 5498 5505 5513 5522 5530 5538 5547 5556 5564 5573 5581 5589 5597 5605 5612 5619 5626
5477 5473 5469 5463 5459 5457 5458 5454 5450 5449 5447 5447 5446 5445 5445 5446 5447 5448 5449 5451 5453 5456 5460 5465 5470 5476 5483 5489 5497 5505 5513 5521 5530 5538 5546 5555 5563 5572 5580 5588 5596 5603 5610 5617
5469 5464 5460 5455 5450 5449 5449 5444 5442 5441 5441 5439 5437 5437 5438 5438 5439 5441 5442 5444 5446 5449 5453 5457 5463 5468 5475 5481 5489 5497 5504 5512 5520 5528 5537 5546 5554 5562 5571 5579 5586 5594 5601 5607
5459 5455 5452 5447 5443 5444 5439 5436 5434 5433 5431 5430 5429 5429 5429 5430 5431 5432 5434 5436 5439 5442 5445 5450 5455 5460 5466 5473 5481 5488 5496 5503 5511 5519 5528 5536 5545 5553 5561 5569 5576 5584 5591 5598
5450 5447 5442 5440 5439 5434 5430 5427 5425 5424 5422 5421 5421 5421 5421 5422 5423 5424 5426 5428 5431 5434 5437 5442 5447 5453 5459 5465 5472 5480 5487 5494 5502 5509 5518 5526 5535 5543 5551 5559 5567 5574 5581 5588
5440 5436 5432 5430 5428 5425 5421 5419 5417 5415 5414 5413 5413 5413 5413 5413 5415 5416 5418 5420 5422 5425 5429 5434 5439 5445 5450 5457 5463 5470 5478 5485 5493 5501 5508 5517 5525 5533 5541 5549 5557 5564 5572 5579
5430 5426 5422 5420 5419 5416 5413 5410 5409 5407 5406 5405 5405 5405 5405 5405 5407 5408 5410 5412 5414 5417 5420 5425 5430 5436 5442 5448 5455 5461 5468 5476 5484 5491 5499 5507 5515 5524 5532 5539 5547 5555 5563 5570
5420 5416 5413 5412 5410 5407 5406 5403 5401 5399 5398 5397 5397 5397 5396 5397 5398 5399 5401 5403 5406 5409 5412 5416 5421 5427 5433 5439 5445 5452 5459 5466 5474 5482 5490 5498 5506 5514 5522 5529 5537 5544 5552 5560